TimeCDT,TemperatureF,Dew PointF,Humidity,Sea Level PressureIn,VisibilityMPH,Wind Direction,Wind SpeedMPH,Gust SpeedMPH,PrecipitationIn,Events,Conditions,WindDirDegrees,DateUTC
12:52 AM,37.9,36.0,93,29.80,5.0,West,4.6,-,N/A,,Clear,280,2013-11-02 05:52:00
1:52 AM,37.9,36.0,93,29.82,7.0,West,4.6,-,N/A,,Overcast,280,2013-11-02 06:52:00
2:52 AM,39.0,36.0,89,29.85,7.0,WNW,9.2,-,N/A,,Mostly Cloudy,300,2013-11-02 07:52:00
3:52 AM,37.9,35.1,89,29.85,6.0,NW,5.8,-,N/A,,Clear,320,2013-11-02 08:52:00
4:52 AM,37.9,35.1,89,29.87,5.0,NW,10.4,-,N/A,,Partly Cloudy,320,2013-11-02 09:52:00
5:52 AM,37.0,34.0,89,29.91,6.0,NNW,11.5,-,N/A,,Partly Cloudy,330,2013-11-02 10:52:00
6:52 AM,36.0,33.1,89,29.94,6.0,NW,5.8,-,N/A,,Clear,320,2013-11-02 11:52:00
7:52 AM,35.1,32.0,89,29.97,7.0,NW,10.4,-,N/A,,Clear,310,2013-11-02 12:52:00
8:52 AM,37.0,33.1,86,30.00,10.0,NW,11.5,-,N/A,,Clear,320,2013-11-02 13:52:00
9:52 AM,41.0,34.0,76,30.03,10.0,NW,10.4,-,N/A,,Overcast,320,2013-11-02 14:52:00
10:52 AM,42.1,34.0,73,30.04,10.0,NW,13.8,19.6,N/A,,Mostly Cloudy,320,2013-11-02 15:52:00
11:52 AM,46.0,37.0,71,30.05,10.0,NW,12.7,-,N/A,,Clear,310,2013-11-02 16:52:00
12:26 PM,46.4,39.2,76,30.04,10.0,WNW,12.7,-,N/A,,Mostly Cloudy,300,2013-11-02 17:26:00
12:50 PM,46.4,37.4,71,30.04,10.0,NW,10.4,-,N/A,,Scattered Clouds,310,2013-11-02 17:50:00
12:52 PM,46.0,37.0,71,30.05,10.0,WNW,9.2,-,N/A,,Partly Cloudy,300,2013-11-02 17:52:00
1:10 PM,48.2,37.4,66,30.03,10.0,NW,13.8,-,N/A,,Mostly Cloudy,310,2013-11-02 18:10:00
1:21 PM,48.2,35.6,62,30.03,10.0,NW,15.0,21.9,N/A,,Scattered Clouds,310,2013-11-02 18:21:00
1:52 PM,48.9,35.1,59,30.04,10.0,WNW,17.3,-,N/A,,Scattered Clouds,300,2013-11-02 18:52:00
2:52 PM,50.0,35.1,57,30.06,10.0,NW,15.0,-,N/A,,Mostly Cloudy,320,2013-11-02 19:52:00
3:52 PM,48.9,33.1,54,30.07,10.0,NW,17.3,23.0,N/A,,Clear,320,2013-11-02 20:52:00
4:52 PM,48.0,32.0,54,30.09,10.0,NNW,15.0,23.0,N/A,,Clear,330,2013-11-02 21:52:00
5:52 PM,44.1,33.1,65,30.11,10.0,NNW,8.1,-,N/A,,Clear,340,2013-11-02 22:52:00
6:52 PM,39.9,30.9,70,30.12,10.0,NNW,4.6,-,N/A,,Clear,330,2013-11-02 23:52:00
7:52 PM,39.0,30.0,70,30.15,10.0,NNW,3.5,-,N/A,,Clear,330,2013-11-03 00:52:00
8:52 PM,36.0,28.9,76,30.16,10.0,North,4.6,-,N/A,,Clear,360,2013-11-03 01:52:00
9:52 PM,35.1,30.0,82,30.18,10.0,Calm,Calm,-,N/A,,Clear,0,2013-11-03 02:52:00
10:52 PM,32.0,28.0,85,30.18,10.0,Calm,Calm,-,N/A,,Clear,0,2013-11-03 03:52:00
11:52 PM,32.0,27.0,82,30.18,10.0,Calm,Calm,-,N/A,,Clear,0,2013-11-03 04:52:00